[[{"header":{"parameterUnit":"m.s-1","parameterCategory":1,"la1":30.2991,"la2":30.254,"lo1":-89.0895,"lo2":-89.0444,"dy":0.0017,"dx":0.0017,"nx":28,"ny":28,"refTime":"2025-07-31T09:00:00:Z","depth":0,"parameterNumber":2,"parameterNumberName":"U-component_of_WINDS"},"data":[0,0,0,0,0,0,0,0,0,0,0,0,0,0,0,0,0,0,0,0,0,0,0,0,0,0,0,0,0,0,0,0,0,0,0,0,0,0,0,0,0,0,0,0,0,0,0,0,0,0,0,0,0,0,0,0,0,0,1.9506,1.9507,0,1.9614,1.9615,1.9617,1.9631,1.9629,1.9628,1.9627,1.9743,1.9747,1.9751,0,0,0,0,0,0,0,0,0,0,0,0,0,1.9314,1.9317,1.9505,1.9507,1.9508,1.9614,1.9615,1.9617,1.9631,1.9629,1.9628,1.9627,1.9742,1.9746,1.9751,0,0,0,0,0,0,0,0,0,0,0,0,0,1.9407,1.9319,1.9505,1.9528,1.9531,1.9614,1.9615,1.9617,1.9631,1.9629,1.9628,1.9626,1.974,1.9746,1.9752,1.9821,0,0,1.977,1.9773,0,0,0,0,0,0,0,0,1.9402,1.9414,1.9523,1.9526,1.953,1.9607,1.959,1.9686,1.9631,1.9593,1.9627,1.9626,1.9699,1.9709,1.9733,1.9826,1.9831,1.9771,1.9775,1.9777,1.9779,0,0,0,0,0,0,0,1.9396,1.941,1.9549,1.9525,1.9529,1.9534,1.9545,1.9608,1.9654,1.9596,1.9598,1.961,1.9701,1.9727,1.9735,1.9833,1.9771,1.9776,1.978,1.9782,1.9989,1.9991,0,0,0,0,0,0,1.9384,1.9404,1.9545,1.9552,1.9461,1.9538,1.9551,1.9584,1.9653,1.9662,1.9611,1.961,1.9717,1.9728,1.9739,1.9824,1.9777,1.9783,1.9786,1.9987,1.9989,1.9991,0,0,0,0,0,0,1.938,1.9397,1.9541,1.9478,1.9497,1.9543,1.958,1.9587,1.9613,1.9664,1.9673,1.9629,1.9716,1.9731,1.98,1.9829,1.9786,1.9791,1.9985,1.9988,1.999,1.9995,0,0,0,0,0,0,1.9375,1.9395,1.9421,1.9479,1.95,1.9598,1.9582,1.959,1.9623,1.9622,1.9683,1.9692,1.9716,1.9791,1.9806,1.9836,1.9796,1.9983,1.9986,1.9989,1.9993,1.9998,2.0002,0,0,0,0,0,1.9368,1.9419,1.9422,1.9439,1.9533,1.96,1.9613,1.9638,1.9625,1.9652,1.9685,1.969,1.9823,1.9798,1.9815,1.9848,1.9981,1.9985,1.9989,1.9991,1.9997,2.0002,0,0,0,0,0,0,1.9365,1.9427,1.9431,1.9503,1.9546,1.9602,1.9637,1.9644,1.9693,1.9691,1.9722,1.9735,1.9803,1.9833,1.9803,1.9918,1.9901,1.9909,1.9896,1.9903,1.9907,1.9899,1.9801,0,0,0,0,0,1.9372,1.942,1.9472,1.953,1.9552,1.959,1.9621,1.9636,1.9683,1.9702,1.974,1.9786,1.9838,1.9872,1.9923,1.9997,2.0011,2.0028,2.0033,2.0036,2.0043,2.0084,2.0092,2.0005,2.0005,2.0005,0,0,1.9389,1.9428,1.9457,1.9531,1.9566,1.9616,1.9606,1.9659,1.9696,1.971,1.9777,1.9807,1.9861,1.9933,1.9966,1.9959,2.007,2.0042,2.0044,2.0049,2.0089,2.0097,2.0104,2.0008,2.0007,2.0007,0,0,1.9443,1.9478,1.953,1.9565,1.9618,1.9644,1.9656,1.9712,1.9732,1.9799,1.981,1.9856,1.9946,1.9983,2.0014,2.0083,2.0089,2.0099,2.0123,2.0163,2.017,2.0176,2.02,2.0208,2.0105,2.0105,2.0105,0,1.9457,1.9531,1.9556,1.9609,1.9641,1.9654,1.9707,1.9741,1.9809,1.9831,1.9822,1.9934,1.9971,2.0051,2.0068,2.0093,2.0108,2.0092,2.0166,2.0173,2.0179,2.0203,2.0212,2.0106,2.0106,2.0106,2.0105,0,1.9545,1.9597,1.9632,1.9695,1.9732,1.9785,1.9818,1.9853,1.9866,1.9892,1.9961,2.0006,2.0066,2.0087,2.01,2.0169,2.0163,2.016,2.0143,2.0188,2.021,2.0219,2.0107,2.0107,2.0106,2.0106,0,0,1.9601,1.9677,1.9689,1.9718,1.9778,1.9818,1.9872,1.9929,1.9958,2.0004,2.005,2.0125,2.0123,2.0158,2.0176,2.0211,2.0262,2.0203,2.0205,2.0212,2.034,2.0341,2.0351,2.0266,2.0268,2.027,2.0335,0,1.9662,1.9756,1.978,1.9861,1.9909,1.9922,1.9969,2.0011,2.0038,2.0083,2.0113,2.0166,2.0158,2.0179,2.0214,2.0248,2.0288,2.0244,2.031,2.0312,2.0295,2.0363,2.0365,2.0425,2.0344,2.0346,2.0347,0,1.9746,1.9792,1.9877,1.993,1.9951,1.9992,2.0047,2.009,2.0138,2.0155,2.0194,2.0208,2.0266,2.0246,2.0326,2.0295,2.0324,2.0345,2.0348,2.0355,2.0332,2.0371,2.0444,2.0453,2.0361,2.036,2.0359,0,1.9777,1.9861,1.9923,1.9947,2.001,2.0039,2.0067,2.0114,2.0147,2.0195,2.0216,2.0271,2.0301,2.0343,2.0373,2.0356,2.045,2.0433,2.0466,2.0465,2.0485,2.0483,2.0563,2.0504,2.0504,2.0504,2.0504,0,1.9842,1.9894,1.9937,1.9975,2.0033,2.0061,2.0118,2.0147,2.0189,2.0233,2.0249,2.029,2.0327,2.0374,2.0397,2.0459,2.0473,2.0489,2.0494,2.0487,2.0485,2.0506,2.0502,2.0506,2.0506,2.0505,2.0505,0,1.9887,1.9918,1.9986,2.004,2.0055,2.0095,2.0142,2.018,2.0207,2.0263,2.0278,2.0321,2.0376,2.041,2.0481,2.0497,2.0565,2.057,2.0548,2.0551,2.0581,2.0578,2.0677,2.0691,2.0624,2.0624,2.0625,0,1.9926,1.9966,2.0024,2.0054,2.0082,2.013,2.0164,2.0193,2.0227,2.0285,2.0316,2.0372,2.0419,2.0508,2.0546,2.06,2.0606,2.0637,2.0614,2.0605,2.0605,2.0602,2.0606,2.064,2.0641,2.0641,2.0642,0,1.9992,2.0006,2.0052,2.0104,2.0143,2.0186,2.0228,2.0252,2.0289,2.0327,2.0383,2.0419,2.0491,2.0547,2.0605,2.0635,2.0645,2.0648,2.0659,2.0651,2.0637,2.0644,2.0558,2.0646,2.0646,2.0645,2.0645,2.0645,2.0035,2.007,2.0117,2.0168,2.0203,2.0242,2.028,2.0311,2.0358,2.0418,2.0433,2.0492,2.054,2.0618,2.065,2.0697,2.0692,2.0707,2.0711,2.0714,2.0714,2.063,2.0708,2.0708,2.0708,2.0708,2.0708,0,2.0101,2.0131,2.0178,2.0237,2.0277,2.0282,2.0329,2.0363,2.0414,2.0458,2.0503,2.0568,2.0622,2.0664,2.072,2.075,2.0756,2.0763,2.0761,2.0768,2.0716,2.0701,2.0758,2.0758,2.0758,2.0758,2.0757,2.0757,2.014,2.02,2.0219,2.0297,2.0328,2.0385,2.0411,2.0448,2.0482,2.0554,2.0598,2.0625,2.0668,2.0727,2.0777,2.0788,2.0808,2.0815,2.0826,2.0777,2.0772,2.0766,2.0752,2.0819,2.0819,2.0874,2.0875,2.0875]},{"header":{"parameterUnit":"m.s-1","parameterCategory":1,"la1":30.2991,"la2":30.254,"lo1":-89.0895,"lo2":-89.0444,"dy":0.0017,"dx":0.0017,"nx":28,"ny":28,"refTime":"2025-07-31T09:00:00:Z","depth":0,"parameterNumber":3,"parameterNumberName":"V-component_of_WINDS"},"data":[0,0,0,0,0,0,0,0,0,0,0,0,0,0,0,0,0,0,0,0,0,0,0,0,0,0,0,0,0,0,0,0,0,0,0,0,0,0,0,0,0,0,0,0,0,0,0,0,0,0,0,0,0,0,0,0,0,0,4.0063,4.0063,0,4.0114,4.0115,4.0115,4.0142,4.0142,4.0142,4.0142,4.019,4.0191,4.0192,0,0,0,0,0,0,0,0,0,0,0,0,0,3.9982,3.9983,4.0063,4.0063,4.0064,4.0114,4.0115,4.0115,4.0142,4.0142,4.0142,4.0142,4.019,4.0191,4.0193,0,0,0,0,0,0,0,0,0,0,0,0,0,4.0023,3.9984,4.0062,4.0083,4.0086,4.0114,4.0115,4.0116,4.0142,4.0142,4.0142,4.0142,4.0189,4.0191,4.0193,4.0202,0,0,4.0198,4.0199,0,0,0,0,0,0,0,0,4.0021,4.0026,4.008,4.0082,4.0085,4.0122,4.0104,4.0144,4.0142,4.0121,4.0142,4.0142,4.0167,4.0171,4.018,4.0205,4.0207,4.0198,4.02,4.02,4.0201,0,0,0,0,0,0,0,4.0018,4.0024,4.0083,4.008,4.0083,4.0088,4.0094,4.0112,4.0142,4.0122,4.0125,4.013,4.0168,4.0178,4.0181,4.0207,4.0198,4.02,4.0201,4.0202,4.0241,4.0241,0,0,0,0,0,0,4.0013,4.0022,4.0081,4.0084,4.0053,4.009,4.0096,4.011,4.0142,4.0148,4.013,4.0132,4.0175,4.0179,4.0183,4.0196,4.02,4.0202,4.0203,4.0241,4.0241,4.0241,0,0,0,0,0,0,4.0011,4.0018,4.0079,4.0054,4.0062,4.0091,4.0106,4.0111,4.0121,4.0149,4.0154,4.0135,4.0175,4.018,4.0197,4.0198,4.0203,4.0205,4.0241,4.0241,4.0241,4.0222,0,0,0,0,0,0,4.0008,4.0017,4.0022,4.0054,4.0063,4.0094,4.0106,4.0112,4.0124,4.0126,4.0154,4.0159,4.0176,4.0195,4.0199,4.0201,4.0206,4.0241,4.0241,4.0241,4.0223,4.0222,4.022,0,0,0,0,0,4.0005,4.0014,4.0022,4.0029,4.0071,4.0094,4.01,4.012,4.0124,4.0129,4.0147,4.0158,4.0197,4.0196,4.0202,4.0203,4.0241,4.0241,4.0241,4.0224,4.0222,4.022,0,0,0,0,0,0,3.9981,4.0019,4.0028,4.0048,4.0068,4.0099,4.0106,4.0118,4.0136,4.0137,4.016,4.0166,4.018,4.0193,4.0192,4.0214,4.022,4.0221,4.0205,4.0204,4.0202,4.0199,4.0208,0,0,0,0,0,3.9978,3.9996,4.0027,4.0041,4.0051,4.0076,4.0087,4.0101,4.0122,4.013,4.0149,4.0168,4.0184,4.0195,4.0211,4.0225,4.023,4.0229,4.0227,4.0226,4.0227,4.0234,4.0233,4.0241,4.0241,4.0241,0,0,3.9971,3.9994,4.0004,4.0037,4.0054,4.007,4.0083,4.01,4.0112,4.0132,4.015,4.0164,4.0186,4.0202,4.0209,4.0213,4.0226,4.0226,4.0225,4.0226,4.0233,4.0233,4.0232,4.0241,4.0241,4.0241,0,0,3.9968,3.9988,4.0002,4.0019,4.0045,4.0062,4.0065,4.0094,4.0105,4.0123,4.0139,4.0152,4.018,4.0195,4.0206,4.0207,4.0217,4.0211,4.0204,4.0211,4.021,4.021,4.021,4.0209,4.0212,4.0212,4.0212,0,3.9957,3.9984,4.0007,4.0023,4.0036,4.0057,4.0069,4.0084,4.0113,4.0121,4.0125,4.0161,4.0177,4.0195,4.0196,4.0204,4.0207,4.0208,4.0209,4.0209,4.0209,4.0208,4.0208,4.0211,4.0211,4.0211,4.0211,0,3.9968,3.9986,3.9993,4.0023,4.0037,4.0051,4.0074,4.0085,4.0097,4.0113,4.013,4.015,4.0171,4.0176,4.0188,4.0196,4.0197,4.0205,4.0212,4.0207,4.0207,4.0207,4.0209,4.021,4.021,4.021,0,0,3.9952,3.9993,3.9996,4.0009,4.0039,4.0052,4.0066,4.0088,4.0096,4.0115,4.0127,4.0149,4.0156,4.0169,4.0182,4.0188,4.0186,4.0195,4.0195,4.0192,4.0195,4.0189,4.0189,4.0193,4.0194,4.0194,4.0193,0,3.9953,3.9981,4.0002,4.0021,4.0037,4.0056,4.0068,4.0087,4.0101,4.0115,4.0131,4.0147,4.0155,4.0162,4.0169,4.0185,4.0187,4.0185,4.0203,4.0203,4.0197,4.0189,4.0183,4.0182,4.0193,4.0193,4.0193,0,3.9958,3.9978,4.0,4.0027,4.0034,4.0045,4.0066,4.008,4.01,4.011,4.0124,4.0137,4.0151,4.0156,4.0175,4.0173,4.0181,4.019,4.019,4.0192,4.0198,4.0191,4.0182,4.0182,4.0194,4.0194,4.0194,0,3.9944,3.9976,3.9993,4.0003,4.0036,4.0042,4.0056,4.0076,4.0088,4.0105,4.0112,4.013,4.014,4.0153,4.017,4.0173,4.0186,4.0193,4.0194,4.0193,4.0196,4.0196,4.0188,4.0201,4.0201,4.0201,4.0201,0,3.9943,3.9955,3.9987,3.9997,4.0011,4.0033,4.0045,4.006,4.0078,4.009,4.0106,4.0117,4.014,4.0152,4.0166,4.0178,4.0183,4.019,4.0193,4.0189,4.0187,4.0194,4.0195,4.0201,4.0201,4.0201,4.0201,0,3.993,3.9951,3.9971,4.0,4.0007,4.0016,4.004,4.0049,4.0064,4.0079,4.0084,4.0107,4.0123,4.0142,4.0163,4.0172,4.0183,4.0188,4.0177,4.0179,4.0178,4.0178,4.0174,4.0175,4.0188,4.0187,4.0187,0,3.9928,3.9938,3.9968,3.9978,3.9991,4.0007,4.0019,4.004,4.0051,4.0074,4.0081,4.0098,4.0113,4.0137,4.0155,4.0171,4.0176,4.0174,4.0179,4.0173,4.0176,4.0175,4.0176,4.0173,4.0173,4.0172,4.0172,0,3.9922,3.9932,3.995,3.997,3.9984,4.0001,4.0018,4.0024,4.0049,4.006,4.0077,4.0089,4.0111,4.0127,4.0145,4.0157,4.0168,4.017,4.0171,4.0167,4.0159,4.0163,4.0173,4.0171,4.0171,4.0171,4.0171,4.0171,3.9915,3.9924,3.9947,3.9965,3.998,3.9995,4.0006,4.0022,4.0037,4.0058,4.0069,4.0085,4.0103,4.0129,4.0141,4.0152,4.0156,4.0158,4.0158,4.0158,4.0156,4.0157,4.0156,4.0156,4.0156,4.0156,4.0156,0,3.991,3.9925,3.9941,3.9965,3.9979,3.9989,4.0008,4.0019,4.0033,4.005,4.0065,4.0083,4.0099,4.0117,4.0134,4.014,4.0145,4.0143,4.0143,4.0145,4.0152,4.015,4.0139,4.0139,4.0139,4.0139,4.0139,4.0139,3.9909,3.9925,3.9937,3.996,3.9975,3.9992,4.0002,4.0016,4.0029,4.005,4.0063,4.0076,4.0093,4.011,4.0125,4.0129,4.0134,4.0131,4.0137,4.0143,4.0145,4.0146,4.0144,4.0132,4.0132,4.0129,4.0129,4.0129]}]]